Total_Precipitation_Accumulation
0.05 0.05 0.11 0.10 0.07 0.09 0.10 0.11 0.12 0.10 0.08 0.09 0.10 0.08 0.05 0.04 0.03 0.03 0.04 0.04 0.07 0.10 0.13 0.15 0.18 0.19 0.21 0.22 0.21 0.20 0.19 0.20 0.24 0.25 0.27 0.29 0.35 0.47 0.61 0.58 0.67 0.46 0.40
0.02 0.03 0.09 0.08 0.07 0.08 0.09 0.10 0.12 0.11 0.09 0.08 0.07 0.06 0.06 0.05 0.05 0.05 0.06 0.07 0.08 0.10 0.12 0.14 0.14 0.14 0.14 0.13 0.12 0.13 0.15 0.21 0.29 0.34 0.36 0.35 0.42 0.51 0.57 0.54 0.68 0.44 0.34
0.04 0.03 0.06 0.08 0.07 0.08 0.09 0.10 0.12 0.11 0.10 0.10 0.08 0.07 0.06 0.06 0.06 0.06 0.07 0.09 0.10 0.11 0.11 0.13 0.11 0.09 0.08 0.08 0.09 0.12 0.18 0.26 0.42 0.58 0.74 0.47 0.31 0.49 0.54 0.50 0.42 0.28 0.28
0.05 0.02 0.03 0.07 0.07 0.07 0.08 0.09 0.11 0.12 0.13 0.13 0.10 0.08 0.08 0.08 0.09 0.10 0.09 0.09 0.10 0.12 0.12 0.11 0.09 0.07 0.07 0.08 0.11 0.14 0.20 0.29 0.50 0.79 1.03 0.47 0.20 0.29 0.35 0.30 0.26 0.24 0.25
0.05 0.03 0.04 0.05 0.06 0.06 0.07 0.09 0.11 0.12 0.13 0.14 0.12 0.09 0.10 0.11 0.12 0.12 0.12 0.11 0.11 0.12 0.11 0.10 0.09 0.09 0.09 0.09 0.13 0.17 0.22 0.32 0.49 0.76 0.71 0.55 0.48 0.29 0.23 0.22 0.25 0.27 0.27
0.07 0.05 0.06 0.07 0.06 0.07 0.08 0.09 0.10 0.12 0.14 0.14 0.11 0.12 0.12 0.13 0.13 0.13 0.13 0.12 0.11 0.10 0.11 0.10 0.10 0.11 0.11 0.12 0.17 0.21 0.31 0.44 0.56 0.48 0.39 0.50 0.49 0.31 0.23 0.29 0.33 0.28 0.28
0.09 0.10 0.10 0.10 0.09 0.09 0.09 0.09 0.11 0.12 0.13 0.13 0.12 0.14 0.13 0.14 0.13 0.13 0.13 0.12 0.12 0.10 0.11 0.12 0.12 0.11 0.12 0.13 0.18 0.26 0.38 0.51 0.56 0.38 0.36 0.58 0.50 0.27 0.29 0.43 0.53 0.42 0.30
0.15 0.17 0.18 0.17 0.16 0.13 0.12 0.11 0.13 0.14 0.14 0.15 0.16 0.16 0.15 0.16 0.16 0.15 0.15 0.14 0.14 0.13 0.13 0.14 0.15 0.15 0.14 0.15 0.21 0.28 0.32 0.34 0.41 0.38 0.36 0.49 0.36 0.26 0.32 0.50 0.66 0.63 0.54
0.37 0.47 0.38 0.25 0.21 0.21 0.20 0.18 0.17 0.18 0.20 0.20 0.19 0.18 0.17 0.18 0.18 0.19 0.20 0.20 0.20 0.20 0.21 0.18 0.15 0.18 0.19 0.19 0.23 0.28 0.31 0.36 0.48 0.53 0.44 0.46 0.32 0.31 0.40 0.50 0.61 0.69 0.69
0.54 0.56 0.50 0.34 0.29 0.23 0.20 0.21 0.23 0.23 0.24 0.24 0.22 0.21 0.20 0.20 0.22 0.25 0.27 0.33 0.33 0.36 0.39 0.34 0.25 0.24 0.28 0.28 0.27 0.32 0.36 0.39 0.49 0.55 0.64 0.52 0.39 0.45 0.53 0.54 0.60 0.71 0.77
0.93 0.81 0.69 0.45 0.35 0.32 0.27 0.25 0.31 0.31 0.31 0.30 0.32 0.30 0.32 0.37 0.48 0.62 0.57 0.67 0.64 0.66 0.65 0.64 0.56 0.54 0.57 0.47 0.45 0.52 0.50 0.44 0.67 0.76 0.69 0.51 0.53 0.72 0.83 0.70 0.67 0.71 0.75
1.38 1.21 0.97 0.69 0.55 0.49 0.40 0.41 0.44 0.45 0.55 0.55 0.69 0.72 0.82 0.98 0.97 0.81 0.95 1.17 1.22 1.22 1.15 1.15 1.24 1.12 0.94 0.77 1.08 1.28 0.69 0.58 0.78 0.78 0.74 0.84 0.98 1.19 1.33 1.12 0.92 0.81 0.78
1.57 1.40 1.26 1.03 0.83 0.66 0.65 0.65 0.71 0.82 1.07 0.95 0.91 1.02 1.31 1.24 1.04 0.95 1.07 1.36 1.63 1.65 1.54 1.70 1.83 1.46 1.52 1.62 1.76 1.80 1.14 0.90 1.00 0.97 0.82 1.07 1.31 1.59 1.80 1.63 1.29 1.11 0.98
2.11 1.87 1.64 1.50 1.29 1.18 1.07 0.98 0.90 0.95 1.06 1.04 1.16 1.09 1.40 1.49 1.37 1.31 1.41 1.52 1.72 1.93 2.23 2.20 2.33 2.22 2.16 2.02 2.04 1.98 1.67 1.53 1.47 1.51 1.52 1.51 1.61 1.82 2.10 2.13 1.84 1.53 1.28
2.60 2.36 2.17 2.01 1.93 1.86 1.64 1.43 1.16 1.20 1.17 1.19 1.38 1.39 1.52 1.76 1.82 1.88 1.84 1.75 1.68 2.03 2.43 2.59 2.39 2.65 2.70 2.32 2.02 1.90 1.82 1.79 1.96 2.13 2.04 2.25 2.18 2.13 2.33 2.40 2.22 1.97 1.78
2.77 2.85 2.91 2.74 2.59 2.53 2.32 2.11 1.85 1.67 1.72 1.68 1.74 1.87 2.01 2.14 2.30 2.35 2.21 2.06 1.87 1.92 2.19 2.40 2.43 2.65 2.55 2.43 1.87 1.78 1.72 1.82 1.95 1.97 2.00 2.48 2.47 2.25 2.23 2.35 2.40 2.28 2.12
2.92 3.32 3.56 3.57 3.43 3.34 3.18 2.87 2.49 2.29 2.32 2.45 2.49 2.54 2.49 2.54 2.76 2.64 2.37 2.07 1.97 2.03 2.13 2.12 2.16 2.28 2.14 2.07 1.85 1.93 1.86 1.74 1.64 1.64 1.77 2.00 1.99 1.87 1.86 1.95 2.16 2.36 2.51
3.22 3.74 4.01 4.12 4.26 4.14 4.04 3.66 3.16 2.86 2.77 2.76 2.82 2.81 2.74 2.75 2.64 2.55 2.22 1.88 1.93 2.02 2.02 1.99 1.89 1.97 1.95 2.00 1.98 1.85 1.92 1.78 1.45 1.41 1.47 1.45 1.53 1.45 1.61 1.72 1.82 2.05 2.50
3.50 4.17 4.55 4.97 5.18 5.03 4.62 4.03 3.53 3.40 3.23 3.05 3.01 2.88 2.75 2.56 2.39 2.46 2.14 1.95 1.90 1.87 1.77 1.68 1.87 2.01 1.95 1.96 1.88 1.73 1.57 1.43 1.19 1.03 1.02 0.96 1.09 1.25 1.42 1.52 1.61 1.72 2.20
3.59 4.34 4.93 5.42 5.56 5.23 4.59 4.07 3.89 3.70 3.33 3.02 2.69 2.41 2.21 2.14 2.01 2.09 1.88 1.75 1.82 1.82 1.68 1.71 1.85 1.92 1.72 1.79 1.69 1.44 1.28 1.09 1.00 0.88 0.76 0.76 0.73 0.73 0.94 1.28 1.56 1.37 1.71
3.82 4.51 5.04 5.38 5.28 5.01 4.60 4.16 3.81 3.30 2.93 2.60 2.25 1.95 1.72 1.60 1.55 1.72 1.52 1.57 1.60 1.55 1.45 1.43 1.49 1.51 1.33 1.58 1.68 1.26 0.94 0.83 0.78 0.69 0.69 0.70 0.65 0.70 0.88 1.14 1.34 1.41 1.36
3.59 4.05 4.40 4.32 3.97 3.78 3.67 3.46 3.08 2.95 2.79 2.57 2.35 2.06 1.69 1.55 1.45 1.34 1.35 1.28 1.31 1.34 1.22 1.16 1.27 1.26 1.08 1.31 1.42 1.30 0.93 0.78 0.68 0.54 0.57 0.56 0.63 0.77 0.79 0.88 1.12 1.26 1.20
2.97 3.25 3.28 3.11 2.84 2.76 2.71 2.55 2.48 2.57 2.63 2.53 2.35 2.11 1.82 1.64 1.54 1.45 1.34 1.20 1.14 1.12 1.11 1.06 1.13 1.14 1.02 1.04 1.14 1.31 1.06 0.77 0.63 0.46 0.46 0.53 0.68 0.81 0.80 0.90 0.96 1.10 1.11
2.17 2.31 2.33 2.29 2.16 2.08 2.02 1.86 1.68 1.71 1.91 2.07 2.19 2.17 2.14 1.97 1.74 1.56 1.41 1.20 1.02 0.95 0.99 0.87 0.92 1.04 1.06 0.94 0.92 0.98 1.01 1.06 0.98 0.67 0.45 0.43 0.63 0.72 0.73 0.74 0.83 0.99 1.11
1.44 1.58 1.62 1.76 1.93 1.91 1.80 1.83 1.67 1.39 1.32 1.30 1.39 1.52 1.60 1.63 1.54 1.33 1.19 1.08 0.93 0.83 0.81 0.82 0.91 0.98 1.00 0.93 0.91 0.89 0.94 1.08 1.10 0.98 0.69 0.59 0.63 0.59 0.57 0.62 0.75 0.91 1.04
1.05 1.18 1.36 1.56 1.82 1.88 1.75 1.62 1.57 1.44 1.35 1.25 1.17 1.16 1.12 1.15 1.15 1.07 0.96 0.91 0.86 0.82 0.80 0.76 0.80 0.89 0.97 1.00 1.01 1.04 1.08 1.09 1.15 1.24 1.04 0.87 0.81 0.69 0.65 0.74 0.87 1.05 1.17